Location: Newark
(44.1667°N, 8.2500°E)
Time: 16:58:00
(UTC+00:00)

Transit 4A - Pass Details

Date: 15 December 2019
Orbit: 871 x 973 km, 66.8° (Epoch: 24 January)

Event Time Altitude Azimuth Distance (km) Brightness Sun altitude
Rises 17:25:09 0° 265° (W) 3,582 12.6 -16.5°
Reaches altitude 10° 17:28:37 10° 284° (WNW) 2,621 11.2 -17.1°
Maximum altitude 17:32:37 18° 325° (NW) 2,089 10.0 -17.8°
Drops below altitude 10° 17:36:36 10° 7° (N) 2,581 10.0 -18.5°
Enters shadow 17:37:45 - 15° (NNE) 2,867 10.2 -18.7°
